Regional Weather Roundup
Issued by NWS Sterling, VA

Home | Current Version | Previous Version | Graphics & Text | Print | Product List | Glossary On
Versions: 1 2 3 4 5 6 7 8 9 10 11 12 13 14 15 16 17 18 19 20 21 22 23 24 25 26 27 28 29 30 31 32 33 34 35 36 37 38 39 40 41 42 43 44 45 46 47 48 49 50
000
ASUS41 KLWX 300810
RWRLWX

REGIONAL WEATHER ROUNDUP
NATIONAL WEATHER SERVICE BALTIMORE MD/WASHINGTON DC
400 AM EDT SAT MAY 30 2015

Note: "FAIR" indicates few or no clouds below 12,000 feet
with no significant weather and/or obstructions to visibility.
 TC=TEMPERATURE CELSIUS

 * =Non NWS site. Station does not report precipitation (e.g. rain,
    snow, etc.), thunder, or fog.

DCZ001-MDZ009-015-VAZ040>042-051-053>054-300900-
WASHINGTON METRO

CITY           SKY/WX    TMP DP  RH WIND       PRES   REMARKS
WASHINGTON NAT MOCLDY    73  67  81 S6        30.18F
DULLES         PTCLDY    69  68  96 S8        30.17F
ANDREWS AFB    PTCLDY    68  67  94 S5        30.18S
FT BELVOIR     PTCLDY    70  66  89 SE3       30.17F
QUANTICO       CLOUDY    72  67  84 S14       30.18F
COLLEGE PARK*  MOCLDY    72  66  83 S3        30.18S
LEESBURG*      CLEAR     70  70 100 S7        30.18F
MANASSAS*      PTCLDY    66  66 100 CALM      30.18S
GAITHERSBURG*  CLEAR     66  63  88 CALM      30.22F

$$

MDZ006>007-011-014-300900-
BALTIMORE METRO

CITY           SKY/WX    TMP DP  RH WIND       PRES   REMARKS
BWI AIRPORT    MOCLDY    70  66  87 S3        30.17F
MD SCIENCE CTR   N/A     73  66  78 MISG      30.18F
ANNAPOLIS      MOCLDY    71  67  87 S8        30.17F
FORT MEADE*    CLOUDY    66  63  88 CALM      30.20F

$$

MDZ012-015-019>023-300900-
MARYLAND EASTERN SHORE

CITY           SKY/WX    TMP DP  RH WIND       PRES   REMARKS
OCEAN CITY     CLOUDY    68  67  96 SW6       30.21S FOG
SALISBURY      PTCLDY    62  62 100 CALM      30.20F FOG
BAY BRIDGE AP*   N/A    N/A N/A N/A S7        30.18S
CAMBRIDGE*     PTCLDY    66  63  88 SE5       30.19F
EASTON*        PTCLDY    68  68 100 S5        30.23S

$$

MDZ017>025-300900-
SOUTHERN MARYLAND

CITY           SKY/WX    TMP DP  RH WIND       PRES   REMARKS
PATUXENT RIVER PTCLDY    69  66  90 SE3       30.18F
ST INIGOES       N/A     71  67  87 S7        30.18F
LEONARDTOWN*   CLEAR     68  64  88 CALM      30.20F

$$

MDZ003>005-300900-
NORTH CENTRAL MARYLAND

CITY           SKY/WX    TMP DP  RH WIND       PRES   REMARKS
FREDERICK*     CLEAR     68  66  94 S3        30.19F
HAGERSTOWN APT CLEAR     71  65  81 S8        30.15F
WESTMINSTER*   CLEAR     68  64  88 S5        30.19S

$$

MDZ501>502-300900-
WESTERN MARYLAND

CITY           SKY/WX    TMP DP  RH WIND       PRES   REMARKS
OAKLAND*       CLOUDY    63 N/A N/A S10       30.22S
CUMBERLAND*    CLOUDY    64  64 100 CALM      30.18F VSB 1/4

$$

VAZ025>031-300900-
SHENANDOAH VALLEY

CITY           SKY/WX    TMP DP  RH WIND       PRES   REMARKS
WINCHESTER*    CLEAR     68  68 100 S3        30.16F
FRONT ROYAL*   FAIR      63  63 100 CALM      30.16S
LURAY*           N/A     64  64 100 CALM      30.18S FOG
NEW MARKET*    CLOUDY    62  62 100 CALM      30.17S VSB 1
STAUNTON*      MOCLDY    67  65  94 CALM      30.21S FOG
WAYNESBORO*    CLOUDY    66  65  97 CALM      30.21S

$$

WVZ021-048>050-054>055-300900-
EASTERN WEST VIRGINIA PANHANDLE

CITY           SKY/WX    TMP DP  RH WIND       PRES   REMARKS
MARTINSBURG    CLEAR     65  63  93 CALM      30.16F FOG
PETERSBURG*    MOCLDY    62  60  94 CALM      30.17F FOG

$$

VAZ036>039-050-300900-
CENTRAL FOOTHILLS

CITY           SKY/WX    TMP DP  RH WIND       PRES   REMARKS
CHARLOTTESVILL PTCLDY    68  66  93 CALM      30.18S
CULPEPER*      FOG       62  62 100 CALM      30.18F VSB 1/2
ORANGE*        PTCLDY    66  64  94 CALM      30.20S
GORDONSVILLE*  FAIR      64  64  98 CALM      30.17F FOG
WARRENTON*     FOG       64  64 100 CALM      30.18S VSB 1/2

$$

VAZ055>057-300900-
NORTH AND CENTRAL PIEDMONT

CITY           SKY/WX    TMP DP  RH WIND       PRES   REMARKS
FREDERICKSBRG* PTCLDY    70  70 100 S5        30.17S
STAFFORD*      FOG       64  64  97 CALM      30.21F VSB 1/2

$$

NCZ024-NYZ072-PAZ021-071-VAZ022-071-300900-
OTHER REGIONAL OBSERVATIONS

CITY           SKY/WX    TMP DP  RH WIND       PRES   REMARKS
NEW YORK CITY  CLEAR     68  61  78 VRB3      30.22S
PHILADELPHIA   PTCLDY    70  65  84 S6        30.20S
PITTSBURGH     MOCLDY    69  64  84 S3        30.10F
ROANOKE        PTCLDY    66  65  96 CALM      30.21S
RICHMOND       PTCLDY    69  66  90 SE3       30.19S
RALEIGH        PTCLDY    69  65  86 CALM      30.19S

$$

ANZ530>537-300900-
MARINE OBSERVATIONS

STATION/POSITION TIME  TEMP    WIND        PRES
                       AIR SEA DIR/SP/G
                 (UTC) (F)     (DEG/KT/KT) (MB)
THOMAS PT LIGHT  0800   71 71  180/ 13/ 15 1022.5R
BALT KEY BRIDGE  0700   72     180/  7/  8 1021.8S
COVE POINT       0700   70     200/  9/ 12 1023.1S
LEWISETTA        0700   71 76              1022.3R
SOLOMONS ISLAND  0700      74                N/A
PINEY POINT      0700          190/  8/  9   N/A

$$




USA.gov is the U.S. government's official web portal to all federal, state and local government web resources and services.